Forum


Ask a question

No. FOSS Question Date
Views
Answers
1 DWSIM Pipe unit operation 2018-07-14 14:42:47 17 0
2 DWSIM About internship's forms 2018-07-05 10:00:45 31 1
3 DWSIM Simulating a condensor 2018-06-24 04:42:34 56 0
4 DWSIM Python Documentation For DWSIM 2018-06-21 06:57:47 53 1
5 DWSIM Bubble Column Reactor Substitute 2018-06-20 05:45:42 51 1
6 DWSIM Compound not available 2018-06-01 17:08:01 55 1
7 DWSIM help about vinyl chloride 2018-05-28 18:01:35 49 1
8 DWSIM Crude Desalter Simulator 2018-05-27 06:17:30 52 1
9 DWSIM separator column in compound separater 2018-05-26 18:24:56 46 1
10 DWSIM fixing the output data for a given problem 2018-05-26 17:18:25 47 1
11 DWSIM Conversion reactor 2018-05-21 20:31:08 85 4
12 DWSIM UNIQUAC package with default flash doesnot converge. 2018-05-17 18:37:34 87 3
13 DWSIM Brine evaporation in DWSIM 2018-04-21 04:54:02 126 1
14 DWSIM Regarding adding compuonds in DWSIM 2018-04-04 11:45:22 137 1
15 DWSIM About unit operations in DWSIM 2018-04-03 12:00:22 155 1
16 DWSIM CATALYST is not present 2018-03-21 18:44:11 136 2
17 DWSIM Dehydration Plant Simulation 2018-02-27 14:03:49 125 2
18 DWSIM Dehydration Plant 2018-02-19 15:29:52 166 1
19 DWSIM Proble with opening DWSIM file into software 2018-02-02 07:11:26 181 1
20 DWSIM Kinetic reaction 2018-01-21 05:17:44 171 1
21 DWSIM Rigorous Distillation 2018-01-12 06:01:32 184 1
22 DWSIM PFR step size error 2018-01-11 10:26:39 158 1
23 DWSIM Displaying reaction results 2017-12-31 08:31:37 200 1
24 DWSIM can you suggest me the solution for the error I'm getting while designing methanol synthesis process ? 2017-12-22 12:22:28 194 1
25 DWSIM DWSIM for membrane separation 2017-10-30 17:26:45 266 1
26 DWSIM Downloading the Tutorials 2017-10-03 13:49:40 191 1
27 DWSIM Issue in DWSIM Software Installation 2017-10-02 05:45:54 242 1
28 DWSIM Three phase open-source library 2017-09-13 14:22:55 210 1
29 DWSIM Three phase library open-source 2017-09-13 14:22:23 220 1
30 DWSIM can we use DWSIM for simulutions for a spray or rotay drier systems 2017-09-07 08:36:51 237 1
31 DWSIM internship details 2017-08-14 14:13:59 221 1
32 DWSIM Regarding Submission of flow sheet and its deadline. 2017-08-07 15:00:09 227 1
33 DWSIM Assigning operating pressure for distillation column 2017-07-26 18:58:47 260 1
34 DWSIM step size becomes too small error in plug flow reactor 2017-05-14 05:44:09 384 1
35 DWSIM double clicking not opening main editing window 2017-05-12 02:47:51 240 1
36 DWSIM Multi component Distillation 2017-04-25 12:11:09 544 1
37 DWSIM Unbalanced equation 2017-03-19 14:23:10 317 2
38 DWSIM DWSIM components 2017-03-08 14:13:14 395 2
39 DWSIM RECYCLE STREAM 2017-01-10 04:40:53 666 1
40 DWSIM SIMULATION inquiry 2016-12-29 06:53:02 339 2
41 DWSIM HEAT EXCHANGER 2016-12-04 05:57:37 530 1
42 DWSIM OPEN SOURCE APPLICATION 2016-12-03 04:08:30 394 5
43 DWSIM FLASH DRUM SEPARATOR 2016-12-03 02:40:31 432 1
44 DWSIM New Compound Creator Study 2016-05-26 11:56:10 1074 1
45 DWSIM How to install and run DWSIM on MAC AIR? 2016-04-25 10:40:30 824 2
46 DWSIM Creating component hypothetically 2016-04-22 09:22:23 2394 2
47 DWSIM Equilibrium reactor simulation 2016-02-26 15:40:26 2648 2
48 DWSIM Textbook companion project 2016-02-10 13:38:57 672 2
49 DWSIM Conversion of Reaction 2016-01-04 14:31:49 905 1
50 DWSIM Unavailability of compounds in Database 2015-12-24 14:14:49 1244 2
51 DWSIM TEXTBOOK COMPANION INTERNSHIP 2015-12-23 17:35:03 619 1
52 DWSIM Transient simulations and Stream wise report 2015-10-21 07:04:10 892 1